Overview Statistics Trail Chart Weather Telemetry Raw packets
 

This is the latest recevied weather packets stored in our database for station/object YO3FNC-10. If no packets are shown the sender has not sent any weather packets the latest 10 day(s).

<< 25 26 27 28 29 30 31 >>
Time Temp. Humidity Pressure Rain* Wind** Luminosity Snow
1787969680 28.33° C 34% 1021.1 hPa - - - -
1787968780 28.33° C 34% 1021.4 hPa - - - -
1787967879 28.33° C 35% 1021.4 hPa - - - -
1787966979 28.33° C 35% 1021.4 hPa - - - -
1787966079 28.33° C 35% 1021.4 hPa - - - -
1787965179 28.33° C 34% 1021.3 hPa - - - -
1787964279 28.33° C 35% 1021.2 hPa - - - -
1787963379 28.33° C 35% 1021.3 hPa - - - -
1787962479 28.33° C 35% 1021.3 hPa - - - -
1787961579 27.78° C 36% 1021.8 hPa - - - -
1787960678 27.22° C 36% 1021.7 hPa - - - -
1787959778 26.67° C 38% 1021.7 hPa - - - -
1787958875 26.67° C 38% 1021.8 hPa - - - -
1787957974 26.11° C 38% 1021.7 hPa - - - -
1787957074 25.56° C 39% 1021.8 hPa - - - -
1787956174 25.56° C 38% 1021.8 hPa - - - -
1787955274 26.67° C 37% 1021.8 hPa - - - -
1787954374 26.11° C 38% 1021.8 hPa - - - -
1787953474 26.11° C 37% 1021.8 hPa - - - -
1787952573 26.11° C 37% 1022 hPa - - - -
1787951673 26.67° C 36% 1022.1 hPa - - - -
1787950773 26.67° C 36% 1022.1 hPa - - - -
1787949873 26.67° C 35% 1022.1 hPa - - - -
1787948973 26.67° C 34% 1022 hPa - - - -
1787948073 26.67° C 34% 1022 hPa - - - -

* Rain since midnight (hover to see other rain measurements)
** Current wind speed in m/s (hover to see current wind gust speed)